QPF
0.00 0.00 0.00 0.00 0.00 0.00 0.00 0.00 0.00 0.00 0.00 0.00 0.00 0.00 0.00 0.00 0.00 0.00 0.00 0.00 0.00 0.00 0.00 0.00 0.00 0.00 0.00 0.00 0.00 0.00 0.00 0.00 0.00 0.00 0.00 0.00 0.00 0.00 0.00 0.00 0.00 0.00 0.00 0.00 0.00
0.00 0.00 0.00 0.00 0.00 0.00 0.00 0.00 0.00 0.00 0.00 0.00 0.00 0.00 0.00 0.00 0.00 0.00 0.00 0.00 0.00 0.00 0.00 0.00 0.00 0.00 0.00 0.00 0.00 0.00 0.00 0.00 0.00 0.00 0.00 0.00 0.00 0.00 0.00 0.00 0.00 0.00 0.00 0.00 0.00
0.00 0.00 0.00 0.00 0.00 0.00 0.00 0.00 0.00 0.00 0.00 0.00 0.00 0.00 0.00 0.00 0.00 0.00 0.00 0.00 0.00 0.00 0.00 0.00 0.00 0.00 0.00 0.00 0.00 0.00 0.00 0.00 0.00 0.00 0.00 0.00 0.00 0.00 0.00 0.00 0.00 0.00 0.00 0.00 0.00
0.00 0.00 0.00 0.00 0.00 0.00 0.00 0.00 0.00 0.00 0.00 0.00 0.00 0.00 0.00 0.00 0.00 0.00 0.00 0.00 0.00 0.00 0.00 0.00 0.00 0.00 0.00 0.00 0.00 0.00 0.00 0.00 0.00 0.00 0.00 0.00 0.00 0.00 0.00 0.00 0.00 0.00 0.00 0.00 0.00
0.00 0.00 0.00 0.00 0.00 0.00 0.00 0.00 0.00 0.00 0.00 0.00 0.00 0.00 0.00 0.00 0.00 0.00 0.00 0.00 0.00 0.00 0.00 0.00 0.00 0.00 0.00 0.00 0.00 0.00 0.00 0.00 0.00 0.00 0.00 0.00 0.00 0.00 0.00 0.00 0.00 0.00 0.00 0.00 0.00
0.00 0.00 0.00 0.00 0.00 0.00 0.00 0.00 0.00 0.00 0.00 0.00 0.00 0.00 0.00 0.00 0.00 0.00 0.00 0.00 0.00 0.00 0.00 0.00 0.00 0.00 0.00 0.00 0.00 0.00 0.00 0.00 0.00 0.00 0.00 0.00 0.00 0.00 0.00 0.00 0.00 0.00 0.00 0.00 0.00
0.00 0.00 0.00 0.00 0.00 0.00 0.00 0.00 0.00 0.00 0.00 0.00 0.00 0.00 0.00 0.00 0.00 0.00 0.00 0.00 0.00 0.00 0.00 0.00 0.00 0.00 0.00 0.00 0.00 0.00 0.00 0.00 0.00 0.00 0.00 0.00 0.00 0.00 0.00 0.00 0.00 0.00 0.00 0.00 0.00
0.00 0.00 0.00 0.00 0.00 0.00 0.00 0.00 0.00 0.00 0.00 0.00 0.00 0.00 0.00 0.00 0.00 0.00 0.00 0.00 0.00 0.00 0.00 0.00 0.00 0.00 0.00 0.00 0.00 0.00 0.00 0.00 0.00 0.00 0.00 0.00 0.00 0.00 0.00 0.00 0.00 0.00 0.00 0.00 0.00
0.00 0.00 0.00 0.00 0.00 0.00 0.00 0.00 0.00 0.00 0.00 0.00 0.00 0.00 0.00 0.00 0.00 0.00 0.00 0.00 0.00 0.00 0.00 0.00 0.00 0.00 0.00 0.00 0.00 0.00 0.00 0.00 0.00 0.00 0.00 0.00 0.00 0.00 0.00 0.00 0.00 0.00 0.00 0.00 0.00
0.00 0.00 0.00 0.00 0.00 0.00 0.00 0.00 0.00 0.00 0.00 0.00 0.00 0.00 0.00 0.00 0.00 0.00 0.00 0.00 0.00 0.00 0.00 0.00 0.00 0.00 0.00 0.00 0.00 0.00 0.00 0.00 0.00 0.00 0.00 0.00 0.00 0.00 0.00 0.00 0.00 0.00 0.00 0.00 0.00
0.00 0.00 0.00 0.00 0.00 0.00 0.00 0.00 0.00 0.00 0.00 0.00 0.00 0.00 0.00 0.00 0.00 0.00 0.00 0.00 0.00 0.00 0.00 0.00 0.00 0.00 0.00 0.00 0.00 0.00 0.00 0.00 0.00 0.00 0.00 0.00 0.00 0.00 0.00 0.00 0.00 0.00 0.00 0.00 0.00
0.00 0.00 0.00 0.00 0.00 0.00 0.00 0.00 0.00 0.00 0.00 0.00 0.00 0.00 0.00 0.00 0.00 0.00 0.00 0.00 0.00 0.00 0.00 0.00 0.00 0.00 0.00 0.00 0.00 0.00 0.00 0.00 0.00 0.00 0.00 0.00 0.00 0.00 0.00 0.00 0.00 0.00 0.00 0.00 0.00
0.00 0.00 0.00 0.00 0.00 0.00 0.00 0.00 0.00 0.00 0.00 0.00 0.00 0.00 0.00 0.00 0.00 0.00 0.00 0.00 0.00 0.00 0.00 0.00 0.00 0.00 0.00 0.00 0.00 0.00 0.00 0.00 0.00 0.00 0.00 0.00 0.00 0.00 0.00 0.00 0.00 0.00 0.00 0.00 0.00
0.00 0.00 0.00 0.00 0.00 0.00 0.00 0.00 0.00 0.00 0.00 0.00 0.00 0.00 0.00 0.00 0.00 0.00 0.00 0.00 0.00 0.00 0.00 0.00 0.00 0.00 0.00 0.00 0.00 0.00 0.00 0.00 0.00 0.00 0.00 0.00 0.00 0.00 0.00 0.00 0.00 0.00 0.00 0.00 0.00
0.00 0.00 0.00 0.00 0.00 0.00 0.00 0.00 0.00 0.00 0.00 0.00 0.00 0.00 0.00 0.00 0.00 0.00 0.00 0.00 0.00 0.00 0.00 0.00 0.00 0.00 0.00 0.00 0.00 0.00 0.00 0.00 0.00 0.00 0.00 0.00 0.00 0.00 0.00 0.00 0.00 0.00 0.00 0.00 0.00
0.00 0.00 0.00 0.00 0.00 0.00 0.00 0.00 0.00 0.00 0.00 0.00 0.00 0.00 0.00 0.00 0.00 0.00 0.00 0.00 0.00 0.00 0.00 0.00 0.00 0.00 0.00 0.00 0.00 0.00 0.00 0.00 0.00 0.01 0.01 0.00 0.00 0.00 0.00 0.00 0.00 0.00 0.00 0.00 0.00
0.00 0.00 0.00 0.00 0.00 0.00 0.00 0.00 0.00 0.00 0.00 0.00 0.00 0.00 0.00 0.00 0.00 0.00 0.00 0.00 0.00 0.00 0.00 0.00 0.00 0.00 0.00 0.00 0.00 0.00 0.00 0.00 0.00 0.01 0.00 0.00 0.00 0.00 0.00 0.00 0.00 0.00 0.00 0.00 0.01
0.00 0.00 0.00 0.00 0.00 0.00 0.00 0.00 0.00 0.00 0.00 0.00 0.00 0.00 0.00 0.00 0.00 0.00 0.00 0.00 0.00 0.00 0.00 0.00 0.00 0.00 0.00 0.00 0.00 0.00 0.00 0.00 0.00 0.00 0.00 0.00 0.00 0.00 0.00 0.00 0.00 0.00 0.00 0.01 0.04
0.00 0.00 0.00 0.00 0.00 0.00 0.00 0.00 0.00 0.00 0.01 0.01 0.00 0.00 0.00 0.00 0.00 0.00 0.00 0.00 0.00 0.00 0.00 0.00 0.00 0.00 0.00 0.00 0.00 0.00 0.00 0.00 0.00 0.00 0.00 0.00 0.00 0.00 0.00 0.00 0.00 0.00 0.01 0.01 0.01
0.00 0.00 0.00 0.00 0.00 0.00 0.00 0.00 0.00 0.00 0.00 0.01 0.01 0.00 0.00 0.00 0.00 0.00 0.00 0.00 0.00 0.00 0.00 0.00 0.00 0.00 0.00 0.00 0.00 0.00 0.00 0.00 0.00 0.01 0.00 0.00 0.00 0.00 0.00 0.00 0.00 0.00 0.00 0.04 0.04
0.00 0.00 0.00 0.00 0.00 0.00 0.00 0.00 0.00 0.00 0.00 0.01 0.00 0.00 0.00 0.00 0.01 0.01 0.00 0.00 0.00 0.00 0.00 0.00 0.00 0.00 0.00 0.00 0.00 0.02 0.01 0.00 0.00 0.00 0.00 0.00 0.00 0.00 0.00 0.00 0.00 0.00 0.00 0.00 0.01
0.00 0.00 0.00 0.00 0.00 0.00 0.00 0.00 0.00 0.00 0.00 0.00 0.00 0.00 0.00 0.00 0.00 0.01 0.01 0.02 0.01 0.00 0.00 0.00 0.00 0.00 0.00 0.02 0.02 0.03 0.02 0.00 0.00 0.00 0.00 0.00 0.00 0.00 0.00 0.00 0.00 0.00 0.00 0.02 0.02
0.00 0.00 0.00 0.00 0.00 0.00 0.00 0.00 0.00 0.00 0.00 0.00 0.00 0.00 0.00 0.00 0.00 0.01 0.02 0.02 0.00 0.00 0.00 0.00 0.00 0.01 0.01 0.03 0.07 0.02 0.01 0.00 0.00 0.00 0.00 0.00 0.00 0.00 0.00 0.00 0.00 0.00 0.01 0.04 0.02
0.00 0.00 0.00 0.00 0.00 0.00 0.00 0.00 0.00 0.00 0.00 0.00 0.00 0.00 0.00 0.00 0.00 0.00 0.00 0.00 0.00 0.00 0.01 0.02 0.00 0.00 0.01 0.03 0.05 0.00 0.00 0.00 0.00 0.00 0.00 0.00 0.00 0.00 0.00 0.00 0.00 0.00 0.00 0.00 0.01
0.00 0.00 0.00 0.00 0.00 0.00 0.00 0.00 0.00 0.00 0.00 0.00 0.00 0.00 0.00 0.00 0.00 0.00 0.00 0.00 0.00 0.00 0.03 0.02 0.01 0.00 0.00 0.02 0.02 0.00 0.00 0.00 0.00 0.00 0.00 0.00 0.00 0.00 0.00 0.00 0.00 0.00 0.00 0.00 0.00
0.00 0.00 0.00 0.00 0.00 0.00 0.00 0.00 0.00 0.00 0.00 0.00 0.00 0.00 0.00 0.00 0.00 0.00 0.00 0.00 0.00 0.01 0.01 0.01 0.01 0.01 0.01 0.02 0.01 0.00 0.00 0.00 0.00 0.00 0.00 0.00 0.00 0.00 0.00 0.00 0.00 0.00 0.00 0.00 0.00
0.00 0.00 0.00 0.00 0.00 0.00 0.00 0.00 0.00 0.00 0.00 0.00 0.00 0.00 0.00 0.00 0.00 0.00 0.00 0.00 0.00 0.00 0.01 0.00 0.00 0.00 0.01 0.00 0.00 0.01 0.01 0.00 0.00 0.00 0.00 0.00 0.00 0.00 0.00 0.00 0.00 0.00 0.00 0.00 0.00
MSLP
1020.77 1020.39 1020.04 1019.71 1019.44 1019.06 1018.71 1018.32 1017.96 1017.66 1017.34 1017.03 1016.79 1016.55 1016.23 1015.90 1015.53 1015.22 1014.66 1013.67 1013.52 1013.22 1013.08 1012.76 1012.43 1012.21 1011.98 1011.60 1011.28 1011.01 1009.76 1008.15 1007.65 1007.17 1006.31 1006.17 1005.56 1005.28 1004.77 1004.20 1004.05 1004.02 1004.25 1004.99 1006.22
1020.64 1020.26 1019.95 1019.54 1019.13 1018.77 1018.37 1018.01 1017.66 1017.30 1017.01 1016.78 1016.57 1016.24 1015.91 1015.58 1015.17 1014.35 1013.55 1013.44 1013.33 1013.06 1012.97 1012.61 1012.41 1012.27 1011.80 1011.53 1011.20 1010.25 1009.20 1008.41 1007.99 1007.25 1006.49 1006.17 1005.72 1005.09 1004.66 1004.15 1003.90 1003.98 1004.90 1005.39 1006.14
1020.53 1020.12 1019.68 1019.24 1018.79 1018.42 1018.06 1017.76 1017.41 1017.02 1016.67 1016.44 1016.30 1016.00 1015.76 1015.44 1014.83 1013.22 1013.01 1012.98 1012.74 1012.50 1012.82 1012.88 1012.70 1012.45 1012.03 1011.75 1011.19 1010.49 1009.01 1008.72 1008.05 1007.72 1007.20 1006.52 1006.00 1005.65 1004.56 1003.90 1003.61 1003.87 1004.52 1005.75 1006.59
1020.36 1019.86 1019.38 1018.93 1018.52 1018.10 1017.82 1017.48 1017.12 1016.79 1016.48 1016.21 1016.05 1015.79 1015.58 1015.33 1014.35 1013.08 1013.07 1012.95 1012.63 1012.06 1012.61 1012.84 1012.77 1012.39 1012.09 1011.56 1011.32 1010.64 1009.95 1009.06 1008.21 1008.04 1007.49 1006.62 1006.40 1005.63 1004.92 1003.75 1003.94 1004.34 1004.39 1005.52 1006.05
1020.13 1019.63 1019.12 1018.65 1018.23 1017.86 1017.49 1017.18 1016.82 1016.50 1016.25 1016.00 1015.83 1015.66 1015.57 1015.04 1013.77 1013.35 1013.12 1013.01 1012.66 1012.62 1012.47 1012.73 1012.68 1012.44 1012.02 1011.80 1011.48 1010.69 1010.14 1009.58 1008.74 1008.44 1007.95 1007.51 1006.15 1005.89 1004.56 1004.09 1004.21 1004.48 1004.81 1005.31 1005.89
1019.92 1019.36 1018.84 1018.37 1017.88 1017.51 1017.14 1016.83 1016.41 1016.13 1015.86 1015.66 1015.57 1015.60 1015.46 1014.50 1013.42 1013.39 1013.31 1013.07 1012.84 1012.73 1012.82 1012.81 1012.67 1012.62 1012.30 1011.93 1011.45 1011.04 1010.46 1009.72 1009.16 1008.47 1008.02 1007.62 1006.62 1005.89 1003.67 1004.12 1003.98 1004.20 1004.50 1004.71 1005.26
1019.67 1019.09 1018.61 1018.11 1017.57 1017.11 1016.78 1016.42 1015.98 1015.56 1015.28 1015.33 1015.39 1015.53 1015.24 1014.00 1013.22 1013.15 1013.18 1012.96 1013.10 1013.01 1012.77 1012.77 1012.77 1012.67 1012.44 1011.90 1011.68 1011.20 1010.70 1010.01 1009.21 1008.76 1007.93 1007.78 1006.34 1004.41 1004.80 1004.39 1003.97 1004.19 1004.42 1004.26 1004.86
1019.39 1018.86 1018.33 1017.82 1017.27 1016.77 1016.45 1016.11 1015.64 1015.21 1015.05 1015.24 1015.37 1015.46 1014.33 1013.35 1013.19 1013.03 1012.86 1012.69 1012.62 1012.88 1013.12 1012.88 1012.93 1012.79 1012.52 1012.20 1011.70 1011.08 1010.74 1009.61 1008.78 1008.52 1007.87 1007.65 1003.59 1004.55 1004.40 1004.40 1003.69 1003.85 1004.28 1004.57 1005.11
1019.16 1018.62 1018.08 1017.53 1016.99 1016.46 1016.12 1015.81 1015.45 1015.27 1015.22 1015.29 1015.45 1015.25 1013.60 1013.07 1012.89 1012.54 1012.64 1012.45 1012.59 1012.66 1012.84 1012.80 1012.74 1012.57 1012.43 1012.05 1011.71 1011.27 1010.04 1009.54 1008.67 1008.03 1007.22 1006.49 1005.01 1004.49 1004.14 1003.99 1003.38 1003.54 1003.91 1004.30 1004.97
1018.92 1018.33 1017.78 1017.27 1016.78 1016.25 1015.68 1015.37 1015.33 1015.33 1015.30 1015.28 1015.18 1015.22 1013.29 1012.77 1012.34 1012.07 1012.47 1012.42 1012.24 1012.39 1012.51 1012.53 1012.52 1012.37 1012.38 1011.91 1010.97 1010.88 1010.49 1009.79 1008.55 1007.76 1007.23 1005.87 1005.35 1004.19 1004.02 1003.65 1003.34 1003.41 1003.65 1003.94 1004.67
1018.62 1018.03 1017.48 1016.98 1016.51 1016.06 1015.44 1015.13 1015.31 1015.21 1015.02 1014.83 1014.56 1014.26 1013.38 1012.77 1012.03 1011.85 1012.00 1011.97 1011.84 1012.04 1012.23 1012.55 1012.31 1012.06 1012.12 1012.15 1011.96 1011.67 1011.11 1010.21 1009.23 1008.45 1007.70 1006.25 1005.52 1004.87 1003.87 1003.74 1003.34 1003.20 1003.39 1003.57 1004.15
1018.38 1017.70 1017.12 1016.62 1016.22 1015.86 1015.70 1015.17 1015.17 1015.20 1014.82 1014.10 1014.14 1013.97 1013.46 1012.95 1012.16 1011.66 1011.82 1011.80 1011.72 1011.71 1012.25 1012.65 1012.22 1012.28 1012.55 1012.66 1012.43 1012.02 1011.36 1010.54 1009.77 1008.77 1008.15 1006.61 1005.40 1004.51 1003.88 1003.31 1002.95 1002.84 1002.83 1003.29 1004.23
1018.08 1017.40 1016.76 1016.24 1015.94 1015.84 1015.59 1015.19 1014.98 1014.93 1014.94 1013.64 1013.38 1013.11 1012.79 1012.81 1012.06 1011.58 1011.70 1011.48 1011.48 1011.73 1011.99 1012.01 1011.99 1012.23 1012.38 1012.48 1012.34 1011.97 1011.42 1010.81 1010.15 1009.15 1008.02 1006.82 1005.12 1003.83 1002.90 1002.84 1002.70 1002.66 1002.55 1003.20 1003.63
1017.75 1016.97 1016.39 1015.98 1016.12 1015.71 1015.30 1015.16 1015.15 1015.08 1014.50 1013.33 1012.64 1012.08 1012.31 1012.15 1011.63 1011.30 1011.27 1011.40 1011.43 1011.44 1011.94 1011.99 1012.05 1012.10 1012.19 1012.17 1012.19 1011.64 1011.49 1011.05 1010.21 1009.47 1007.57 1006.72 1003.78 1002.53 1002.06 1001.76 1002.01 1002.40 1002.57 1003.11 1003.70
1017.26 1016.51 1015.97 1015.68 1015.70 1015.45 1015.39 1015.24 1015.28 1015.20 1014.13 1013.00 1011.91 1011.46 1011.55 1011.72 1011.62 1011.10 1011.23 1011.38 1011.29 1011.41 1011.89 1011.55 1011.72 1011.81 1011.86 1011.69 1011.77 1011.26 1011.13 1010.74 1010.18 1009.31 1008.24 1006.30 1004.90 1001.21 1001.29 1001.03 1001.11 1001.43 1002.08 1002.75 1003.46
1016.73 1016.04 1015.75 1015.71 1015.64 1015.25 1015.26 1015.30 1015.28 1014.82 1013.74 1012.80 1012.17 1011.78 1011.75 1011.72 1011.70 1011.32 1011.59 1011.97 1011.84 1011.63 1011.87 1011.56 1011.81 1011.59 1011.36 1011.40 1011.41 1011.10 1011.00 1010.70 1010.01 1009.04 1007.51 1005.51 1004.08 1000.60 999.97 999.26 999.90 1000.60 1001.26 1002.11 1003.13
1016.33 1015.72 1015.48 1015.23 1015.29 1015.27 1015.38 1015.17 1014.96 1014.72 1014.36 1013.37 1012.62 1012.34 1012.31 1011.86 1011.63 1011.89 1011.96 1012.35 1012.46 1012.07 1011.79 1011.59 1011.24 1011.13 1011.20 1011.09 1011.17 1011.04 1010.62 1010.01 1009.55 1008.39 1005.66 1004.27 1003.55 1000.10 998.67 998.26 998.75 999.76 1000.59 1001.67 1002.67
1016.08 1015.53 1015.54 1015.30 1015.35 1015.35 1015.19 1014.79 1014.98 1015.04 1014.35 1013.80 1013.29 1012.79 1012.54 1012.26 1012.16 1012.30 1012.44 1012.25 1012.66 1012.72 1012.01 1011.28 1010.55 1010.31 1010.33 1010.18 1010.06 1010.22 1010.42 1009.17 1007.94 1006.37 1004.40 1004.00 1001.52 999.40 998.25 998.26 998.25 999.41 1000.45 1001.71 1002.75
1015.92 1015.47 1015.36 1015.38 1015.26 1015.29 1014.88 1015.21 1015.66 1015.14 1014.52 1013.95 1013.35 1013.48 1012.92 1012.65 1012.93 1012.53 1012.22 1011.74 1011.65 1012.33 1012.33 1011.31 1010.45 1009.71 1009.71 1009.64 1009.84 1010.11 1009.94 1009.49 1008.74 1006.76 1004.30 1002.46 1000.43 998.99 998.18 997.95 998.27 999.25 1000.59 1001.71 1003.20
1017.08 1016.18 1015.67 1015.40 1015.27 1014.97 1015.15 1015.78 1015.55 1015.17 1014.62 1014.23 1014.14 1014.27 1013.77 1013.26 1013.00 1012.41 1011.50 1011.06 1010.98 1011.50 1011.59 1011.16 1010.47 1009.94 1009.41 1009.49 1009.51 1009.40 1009.36 1009.76 1009.33 1006.57 1003.76 1001.09 999.58 997.77 997.72 997.42 997.98 999.16 1000.23 1001.73 1003.13
1017.25 1016.33 1015.52 1015.29 1015.12 1015.28 1016.11 1016.29 1015.66 1014.73 1014.62 1014.42 1014.12 1014.46 1014.26 1013.91 1013.37 1012.24 1011.07 1010.36 1010.29 1011.01 1011.46 1011.19 1010.90 1010.06 1009.53 1008.70 1008.40 1009.40 1009.22 1009.05 1008.46 1006.93 1003.12 1000.32 998.58 997.91 997.32 997.08 997.45 998.37 999.88 1001.39 1003.03
1018.25 1016.79 1015.83 1015.21 1015.71 1017.09 1016.98 1016.94 1016.21 1014.95 1014.49 1014.24 1014.33 1014.42 1014.42 1014.15 1013.42 1012.14 1010.83 1010.15 1009.81 1010.16 1010.70 1010.73 1010.51 1009.65 1009.03 1008.86 1008.62 1008.45 1008.50 1008.64 1007.67 1006.03 1004.09 1001.59 998.32 997.91 997.26 997.11 997.42 998.66 1000.25 1001.93 1003.22
1019.27 1018.11 1016.41 1015.87 1017.15 1017.77 1017.49 1017.00 1016.44 1015.46 1014.77 1014.38 1013.99 1013.95 1013.95 1013.78 1013.44 1012.24 1010.99 1009.95 1009.61 1009.87 1010.00 1010.44 1010.06 1009.28 1008.44 1009.03 1008.46 1008.09 1008.20 1008.09 1008.12 1007.63 1004.55 1001.93 999.11 998.63 998.04 997.74 998.52 999.65 1001.49 1002.87 1004.50
1019.81 1018.96 1018.01 1018.01 1018.80 1018.83 1018.55 1017.50 1016.55 1015.67 1015.05 1014.72 1013.99 1013.46 1013.07 1013.17 1012.78 1011.95 1011.31 1010.49 1010.23 1009.62 1009.76 1010.21 1009.47 1008.85 1007.95 1007.51 1007.25 1007.59 1007.57 1007.82 1007.72 1007.16 1004.52 1002.10 1000.33 999.22 998.58 998.83 999.63 1000.83 1002.48 1003.85 1005.52
1020.75 1021.07 1021.14 1019.57 1018.95 1019.23 1019.22 1018.10 1017.05 1016.36 1015.32 1014.65 1013.62 1013.09 1012.86 1012.39 1011.71 1011.35 1011.18 1010.68 1010.39 1009.57 1009.39 1009.79 1008.56 1007.87 1007.18 1007.09 1007.14 1006.75 1006.77 1007.25 1006.91 1006.19 1005.40 1002.53 1001.99 999.93 998.70 999.17 1000.06 1001.51 1003.22 1004.80 1006.53
1022.08 1022.10 1021.49 1020.68 1020.03 1019.44 1018.79 1017.70 1017.36 1016.60 1016.30 1014.50 1013.81 1012.57 1012.43 1012.18 1011.45 1010.83 1010.58 1010.58 1009.94 1008.99 1008.78 1008.96 1008.04 1007.50 1006.48 1006.45 1006.73 1006.53 1006.13 1006.48 1006.09 1005.75 1005.25 1004.45 1002.55 1001.41 1000.56 1000.38 1001.53 1002.77 1004.03 1005.53 1007.19
1022.95 1022.95 1022.40 1020.88 1020.08 1019.49 1018.53 1017.91 1017.24 1017.19 1015.29 1014.50 1013.63 1012.87 1011.39 1010.37 1010.31 1009.55 1009.36 1009.26 1009.16 1009.07 1008.59 1008.61 1008.13 1007.29 1006.36 1006.42 1006.37 1005.94 1004.89 1004.90 1004.37 1004.25 1004.52 1003.97 1002.29 1001.61 1001.35 1001.33 1002.08 1003.52 1004.91 1005.94 1007.32
Thickness
5657 5656 5653 5650 5646 5642 5638 5635 5632 5626 5620 5613 5606 5599 5594 5595 5595 5597 5598 5606 5605 5608 5614 5624 5634 5640 5648 5653 5661 5665 5668 5681 5696 5705 5725 5740 5746 5762 5780 5781 5788 5802 5810 5815 5815
5654 5651 5648 5644 5641 5636 5632 5628 5622 5616 5608 5600 5591 5586 5587 5589 5591 5595 5599 5597 5595 5594 5593 5602 5613 5620 5629 5637 5646 5655 5661 5673 5695 5711 5721 5732 5739 5751 5761 5771 5779 5793 5803 5811 5811
5650 5647 5643 5640 5636 5630 5625 5619 5612 5606 5599 5588 5582 5581 5581 5583 5586 5597 5594 5591 5589 5588 5580 5580 5589 5602 5608 5619 5630 5641 5657 5669 5686 5699 5711 5719 5727 5741 5753 5760 5782 5786 5797 5799 5800
5646 5643 5639 5635 5630 5625 5619 5612 5604 5596 5589 5581 5578 5578 5577 5577 5593 5589 5584 5582 5582 5582 5572 5565 5569 5580 5592 5603 5615 5628 5642 5656 5678 5687 5698 5709 5719 5729 5743 5768 5779 5784 5797 5794 5798
5643 5640 5636 5631 5625 5619 5613 5605 5598 5590 5582 5578 5576 5575 5573 5573 5579 5578 5575 5574 5573 5571 5566 5558 5557 5564 5574 5588 5600 5615 5629 5642 5663 5673 5685 5696 5711 5719 5740 5761 5773 5779 5786 5789 5793
5640 5636 5632 5627 5621 5614 5607 5600 5593 5586 5579 5576 5573 5569 5566 5568 5574 5568 5565 5564 5564 5563 5558 5555 5553 5556 5563 5574 5587 5602 5614 5631 5647 5662 5676 5681 5698 5711 5747 5754 5762 5771 5780 5790 5794
5637 5633 5628 5623 5618 5610 5603 5596 5591 5584 5579 5574 5570 5563 5560 5567 5567 5563 5558 5556 5554 5554 5554 5554 5552 5551 5556 5563 5579 5592 5598 5615 5634 5648 5662 5673 5686 5714 5728 5739 5749 5759 5771 5788 5791
5635 5631 5626 5621 5615 5609 5600 5593 5587 5581 5576 5570 5563 5557 5561 5566 5563 5560 5556 5555 5553 5549 5545 5549 5549 5549 5551 5561 5570 5580 5589 5601 5629 5640 5658 5664 5703 5708 5726 5726 5742 5753 5764 5774 5780
5634 5629 5624 5619 5613 5607 5599 5590 5583 5576 5569 5564 5558 5554 5565 5564 5560 5559 5553 5551 5547 5544 5542 5545 5546 5547 5550 5552 5556 5566 5581 5591 5613 5637 5653 5666 5679 5701 5717 5720 5735 5748 5757 5765 5774
5632 5628 5622 5617 5611 5605 5598 5588 5577 5569 5562 5558 5555 5553 5564 5562 5560 5558 5549 5544 5543 5540 5537 5538 5539 5541 5543 5549 5558 5561 5571 5586 5604 5629 5642 5660 5667 5693 5706 5716 5726 5740 5751 5761 5769
5629 5626 5620 5615 5608 5602 5595 5588 5583 5573 5561 5560 5559 5554 5556 5556 5557 5552 5545 5540 5539 5536 5528 5529 5532 5534 5538 5543 5549 5554 5560 5572 5593 5612 5623 5644 5655 5673 5698 5705 5714 5732 5746 5760 5768
5627 5624 5619 5613 5606 5598 5588 5585 5574 5565 5560 5560 5553 5548 5547 5548 5546 5545 5539 5530 5526 5522 5520 5519 5522 5528 5531 5532 5536 5544 5552 5565 5579 5597 5611 5630 5645 5671 5683 5698 5716 5728 5745 5756 5762
5626 5623 5619 5613 5605 5595 5587 5580 5571 5563 5552 5560 5556 5551 5549 5543 5542 5538 5531 5524 5520 5516 5516 5517 5522 5522 5525 5527 5530 5538 5546 5556 5565 5583 5606 5617 5634 5663 5689 5696 5711 5724 5745 5754 5763
5626 5624 5618 5613 5604 5594 5588 5576 5566 5558 5557 5562 5560 5556 5547 5544 5538 5540 5532 5522 5516 5516 5513 5515 5518 5518 5520 5522 5527 5532 5542 5549 5560 5568 5585 5609 5634 5664 5685 5694 5704 5718 5735 5747 5755
5627 5625 5619 5610 5603 5596 5583 5572 5562 5553 5563 5558 5556 5559 5551 5542 5538 5536 5531 5520 5515 5515 5513 5517 5514 5514 5514 5520 5525 5531 5539 5546 5554 5563 5572 5599 5608 5671 5680 5681 5698 5720 5735 5745 5753
5628 5625 5619 5610 5599 5592 5580 5569 5560 5562 5554 5550 5551 5546 5542 5537 5532 5533 5523 5517 5513 5512 5508 5515 5512 5515 5517 5520 5523 5532 5532 5538 5549 5559 5561 5595 5612 5657 5672 5700 5709 5725 5738 5747 5751
5629 5625 5618 5608 5602 5588 5577 5569 5567 5550 5553 5546 5542 5540 5534 5533 5532 5523 5517 5507 5498 5499 5501 5506 5509 5512 5514 5514 5519 5525 5528 5532 5533 5543 5577 5606 5597 5655 5702 5717 5721 5727 5739 5747 5753
5629 5624 5614 5604 5595 5586 5578 5574 5551 5548 5542 5544 5538 5535 5531 5532 5526 5518 5509 5511 5491 5488 5499 5503 5503 5508 5514 5516 5519 5521 5522 5537 5537 5559 5592 5596 5602 5651 5703 5715 5728 5731 5740 5743 5743
5628 5622 5614 5602 5594 5584 5582 5557 5543 5540 5542 5535 5536 5523 5530 5530 5518 5515 5509 5514 5510 5489 5489 5495 5502 5514 5514 5519 5520 5515 5515 5534 5530 5559 5580 5601 5635 5669 5689 5701 5711 5718 5724 5731 5734
5616 5616 5611 5601 5591 5586 5573 5551 5545 5540 5537 5532 5520 5516 5516 5520 5514 5516 5517 5516 5512 5496 5498 5500 5499 5504 5509 5515 5517 5518 5524 5512 5516 5546 5569 5610 5621 5653 5670 5687 5703 5710 5721 5725 5728
5614 5617 5610 5601 5593 5583 5560 5549 5543 5546 5536 5528 5526 5513 5509 5504 5507 5517 5522 5522 5517 5501 5494 5495 5494 5503 5508 5512 5515 5506 5509 5519 5531 5541 5590 5607 5626 5663 5677 5695 5704 5719 5727 5729 5728
5602 5612 5605 5601 5589 5552 5554 5542 5539 5543 5538 5529 5521 5515 5500 5498 5500 5511 5518 5519 5520 5509 5497 5497 5497 5503 5507 5508 5511 5514 5513 5519 5535 5561 5578 5594 5641 5663 5684 5701 5715 5720 5722 5722 5727
5595 5593 5597 5594 5569 5558 5549 5543 5537 5538 5537 5530 5526 5518 5512 5503 5497 5499 5514 5523 5522 5512 5504 5498 5500 5500 5506 5498 5503 5508 5513 5523 5525 5526 5568 5593 5636 5652 5672 5692 5704 5709 5707 5710 5707
5590 5591 5585 5571 5550 5544 5535 5539 5540 5536 5531 5528 5525 5523 5525 5514 5510 5502 5502 5514 5512 5516 5507 5499 5508 5507 5508 5516 5523 5513 5523 5525 5529 5531 5574 5604 5629 5644 5666 5675 5688 5695 5694 5697 5696
5573 5563 5545 5567 5561 5538 5525 5528 5536 5529 5531 5525 5532 5526 5522 5506 5512 5508 5499 5503 5505 5516 5512 5503 5516 5523 5529 5527 5521 5530 5530 5526 5534 5551 5554 5602 5596 5647 5673 5680 5691 5692 5688 5688 5687
5566 5556 5548 5545 5540 5537 5533 5543 5529 5529 5514 5529 5525 5531 5523 5510 5518 5515 5511 5498 5506 5523 5520 5514 5521 5527 5535 5528 5526 5527 5539 5532 5543 5552 5562 5571 5590 5627 5656 5673 5671 5675 5677 5679 5679
5546 5540 5537 5540 5542 5538 5542 5536 5530 5517 5527 5522 5525 5521 5530 5539 5532 5533 5524 5522 5522 5520 5523 5517 5522 5528 5537 5533 5532 5540 5551 5551 5564 5573 5574 5577 5612 5634 5646 5663 5670 5670 5673 5678 5678